This is the latest recevied weather packets stored in our database for station/object KU4DD. If no packets are shown the sender has not sent any weather packets the latest 10 day(s).
| Time | Temp. | Humidity | Pressure | Rain* | Wind** | Luminosity | Snow |
|---|---|---|---|---|---|---|---|
| 1777931255 | 22.22° C | 46% | 1011.2 hPa | 0 mm | - | - | - |
| 1777929376 | 22.22° C | 48% | 1011.2 hPa | 0 mm | - | - | - |
| 1777926563 | 22.22° C | 48% | 1011.9 hPa | 0 mm | - | - | - |
| 1777925925 | 22.22° C | 45% | 1011.5 hPa | 0 mm | - | - | - |
| 1777924975 | 22.22° C | 47% | 1011.5 hPa | 0 mm | - | - | - |
| 1777924027 | 21.67° C | 48% | 1011.9 hPa | 0 mm | - | - | - |
| 1777922140 | 21.67° C | 48% | 1012.2 hPa | 0 mm | - | - | - |
| 1777916499 | 21.67° C | 49% | 1013.2 hPa | 0 mm | - | - | - |
| 1777915550 | 21.11° C | 49% | 1013.2 hPa | 0 mm | - | - | - |
| 1777910538 | 21.67° C | 53% | 1014.2 hPa | 0 mm | - | - | - |
| 1777907712 | 21.11° C | 51% | 1014.6 hPa | 0 mm | - | - | - |
| 1777905514 | 21.11° C | 52% | 1014.9 hPa | 0 mm | - | - | - |
| 1777903001 | 21.11° C | 51% | 1015.2 hPa | 0 mm | - | - | - |
| 1777900801 | 20.56° C | 53% | 1014.9 hPa | 0 mm | - | - | - |
| 1777900168 | 20.56° C | 54% | 1014.9 hPa | 0 mm | - | - | - |
| 1777898597 | 20.56° C | 55% | 1014.9 hPa | 0 mm | - | - | - |
| 1777893266 | 21.11° C | 52% | 1015.2 hPa | 0 mm | - | - | - |
| 1777892007 | 21.67° C | 51% | 1015.2 hPa | 0 mm | - | - | - |
| 1777888557 | 20° C | 52% | 1015.2 hPa | 0 mm | - | - | - |
| 1777887296 | 18.89° C | 53% | 1014.9 hPa | 0 mm | - | - | - |
| 1777885722 | 18.89° C | 53% | 1014.9 hPa | 0 mm | - | - | - |
| 1777880395 | 19.44° C | 52% | 1014.9 hPa | 0 mm | - | - | - |
| 1777879759 | 19.44° C | 51% | 1014.9 hPa | 0 mm | - | - | - |
| 1777876310 | 19.44° C | 51% | 1015.2 hPa | 0 mm | - | - | - |
| 1777874114 | 19.44° C | 51% | 1015.2 hPa | 0 mm | - | - | - |
* Rain latest hour (hover to see other rain measurements)
** Current wind speed in m/s (hover to see current wind gust speed)